Location: Centerville
(32.8776°N, 96.6203°W)
Time: 02:19:10
(UTC+00:00)

Cosmos 2034 Rocket - Pass Details

Date: 17 June 2021
Orbit: 957 x 1001 km, 82.9° (Epoch: 27 July)

Event Time Altitude Azimuth Distance (km) Brightness Sun altitude
Rises 06:00:52 0° 357° (N) 3,656 8.1 -33.4°
Reaches altitude 10° 06:03:25 10° 1° (N) 2,701 7.1 -33.4°
Enters shadow 06:08:24 54° 34° (NE) 1,148 4.5 -33.6°
